Weather observations for the past three days for
Roseburg Regional Airport
Imperial (Metric)
Date Time (pdt) Wind (mph) Vis. (mi.) Weather Sky Cond. Temperature (ºF) Relative Humidity Wind Chill (°F) Heat Index (°F) Pressure Precipitation (in)
Air Dwpt 6 hour altimeter (in) sea level (mb) 1 hr 3 hr 6 hr
Max. Min.
20 18:53 NW 10 G 20 10.00 Fair CLR 88 59 38% 87 29.95 1013.9
20 17:53 NW 12 G 18 10.00 Fair CLR 91.9 59 33% 91 29.95 1013.9
20 16:53 N 10 10.00 Fair CLR 93.9 55.9 93.9 75 28% 92 29.97 1014.3
20 15:53 N 10 10.00 Fair CLR 91.9 57 31% 91 29.99 1015.1
20 14:53 Vrbl 3 10.00 Fair CLR 90 57 33% 89 30.01 1015.7
20 13:53 N 7 G 17 10.00 Fair CLR 87.1 55.9 35% 86 30.03 1016.4
20 12:53 N 5 10.00 Fair CLR 82.9 55.9 40% 82 30.05 1017.2
20 11:53 NE 6 10.00 Fair CLR 80.1 55.9 44% 80 30.07 1018.0
20 10:53 Vrbl 5 10.00 Fair CLR 75 55.9 75.9 62.1 52% 78 30.09 1018.6
20 09:53 Vrbl 3 10.00 Fair CLR 72 55 55% 30.11 1019.1
20 08:53 Calm 10.00 Fair CLR 69.1 55 61% 30.12 1019.6
20 07:53 Calm 10.00 Fair CLR 64 55 73% 30.12 1019.7
20 06:53 Calm 10.00 Fair CLR 62.1 54 75% 30.12 1019.5
20 05:53 Calm 10.00 Fair CLR 63 53.1 70% 30.12 1019.4
20 04:53 Calm 10.00 Fair CLR 63 53.1 77 63 70% 30.11 1019.2
20 03:53 Calm 10.00 Fair CLR 64.9 54 68% 30.11 1019.2
20 02:53 N 3 10.00 Fair CLR 68 54 61% 30.11 1019.3
20 01:53 N 3 10.00 Fair CLR 70 54 57% 30.11 1019.3
20 00:53 Calm 10.00 Fair CLR 71.1 54 55% 30.12 1019.3
19 23:53 NE 6 10.00 Fair CLR 73.9 54 50% 30.11 1019.2
19 22:53 N 7 10.00 Fair CLR 77 54 96.1 77 45% 78 30.11 1019.1
19 21:53 N 7 10.00 Fair CLR 80.1 54 41% 80 30.1 1019.0
19 20:53 NW 7 10.00 Fair CLR 82.9 54 37% 82 30.08 1018.1
19 19:53 NW 7 G 18 10.00 Fair CLR 87.1 55.9 35% 86 30.06 1017.7
19 18:53 NW 10 G 21 10.00 Fair CLR 91 57 32% 90 30.05 1017.2
19 17:53 N 9 10.00 Fair CLR 95 48.9 21% 92 30.04 1017.0
19 16:53 N 9 G 20 10.00 Fair CLR 96.1 50 96.1 77 21% 93 30.05 1017.1
19 15:53 NE 10 10.00 Fair CLR 96.1 48.9 20% 93 30.07 1017.6
19 14:53 N 8 10.00 Fair CLR 93 50 23% 90 30.09 1018.4
19 13:53 NE 6 10.00 Fair CLR 90 50 25% 87 30.11 1019.1
19 12:53 NE 5 10.00 Fair CLR 87.1 52 30% 85 30.13 1020.0
19 11:53 Calm 10.00 Fair CLR 82.9 53.1 36% 82 30.15 1020.6
19 10:53 Vrbl 3 10.00 Fair CLR 78.1 53.1 78.1 57.9 42% 79 30.17 1021.2
19 09:53 SE 3 10.00 Fair CLR 71.1 52 51% 30.18 1021.6
19 08:53 Calm 10.00 Fair CLR 66.9 52 59% 30.19 1022.0
19 07:53 Calm 10.00 Fair CLR 62.1 52 70% 30.19 1022.0
19 06:53 Calm 10.00 Fair CLR 59 51.1 75% 30.19 1021.9
19 05:53 Calm 10.00 Fair CLR 59 52 78% 30.18 1021.6
19 04:53 Calm 10.00 Fair CLR 59 50 73.9 59 72% 30.17 1021.4
19 03:53 Calm 10.00 Fair CLR 62.1 50 65% 30.16 1020.9
19 02:53 Calm 10.00 Fair CLR 63 51.1 65% 30.15 1020.6
19 01:53 Calm 10.00 Fair CLR 64.9 51.1 61% 30.15 1020.5
19 00:53 NE 3 10.00 Fair CLR 68 51.1 55% 30.14 1020.4
18 23:53 N 3 10.00 Fair CLR 71.1 52 51% 30.14 1020.1
18 22:53 N 5 10.00 Fair CLR 73.9 52 93 73.9 46% 30.12 1019.7
18 21:53 N 6 10.00 Fair CLR 78.1 51.1 39% 79 30.11 1019.3
18 20:53 N 6 10.00 Fair CLR 81 46 29% 80 30.09 1018.5
18 19:53 NW 6 10.00 A Few Clouds FEW001 84.9 44.1 24% 82 30.06 1017.6
18 18:53 N 9 10.00 Fair CLR 89.1 50 26% 86 30.04 1016.9
18 17:53 NW 9 G 22 10.00 Fair CLR 91 53.1 27% 89 30.03 1016.5
18 16:53 Vrbl 7 10.00 Fair CLR 93 51.1 95 75 24% 90 30.02 1016.2
18 15:53 NW 9 10.00 Fair CLR 93.9 50 22% 91 30.02 1016.3
18 14:53 N 8 10.00 Fair CLR 91 52 26% 88 30.04 1016.8
18 13:53 Vrbl 3 10.00 Fair CLR 88 55 33% 86 30.06 1017.4
18 12:53 Calm 10.00 Fair CLR 84.9 55 36% 84 30.07 1017.8
18 11:53 Calm 10.00 Fair CLR 80.1 55 42% 80 30.08 1018.4
18 10:53 NE 5 10.00 Fair CLR 75 55.9 75 57 52% 78 30.1 1018.9
18 09:53 Calm 10.00 Fair CLR 68 55 63% 30.11 1019.3
18 08:53 Calm 10.00 Fair CLR 63 54 73% 30.12 1019.6
18 07:53 Calm 10.00 Fair CLR 61 53.1 75% 30.12 1019.8
18 06:53 Calm 10.00 Fair CLR 57.9 52 81% 30.12 1019.7
18 05:53 Calm 10.00 Fair CLR 57 51.1 81% 30.11 1019.3
18 04:53 Calm 10.00 Fair CLR 57.9 52 69.1 57.9 81% 30.1 1019.0
18 03:53 N 3 10.00 Fair CLR 60.1 53.1 78% 30.09 1018.6
18 02:53 N 6 10.00 Fair CLR 61 53.1 75% 30.08 1018.4
18 01:53 NW 3 10.00 Fair CLR 62.1 53.1 73% 30.08 1018.4
18 00:53 NW 7 10.00 Fair CLR 64 53.1 68% 30.08 1018.4
17 23:53 N 7 10.00 Fair CLR 66 54 65% 30.07 1018.1
17 22:53 N 8 10.00 Fair CLR 69.1 54 87.1 69.1 59% 30.06 1017.7
17 21:53 N 6 10.00 Fair CLR 71.1 55 57% 30.05 1017.2
17 20:53 N 7 10.00 Fair CLR 75 55 50% 78 30.03 1016.6
17 19:53 NW 8 10.00 Fair CLR 78.1 55 45% 79 30.02 1016.1
Date Time (pdt) Wind (mph) Vis. (mi.) Weather Sky Cond. Air Dwpt Max. Min. Relative Humidity Wind Chill (°F) Heat Index (°F) altimeter (in) sea level (mb) 1 hr 3 hr 6 hr
6 hour
Temperature (ºF) Pressure Precipitation (in)